User: anonymous   Login
Location: Unspecified
(0.0000°N, 0.0000°E)
Time: 20:29:00
(UTC+00:00)
Language:

IBEX - Orbit

View from above orbital plane
View from above orbital plane
View from above satellite
View from above satellite

Ground track
Ground track

The orbit data is extracted from the following two-line orbital elements,

1 33401U 08051A   16202.82208684 -.00001282  00000-0  00000+0 0  9997
2 33401  43.0113  22.8566 5062550 164.7567 357.7345  0.11190238  3274
Epoch (UTC): 20 July 2016 19:43:48
Eccentricity: 0.5062550
inclination: 43.0113°
perigee height: 83435 km
apogee height: 267612 km
right ascension of ascending node: 22.8566°
argument of perigee: 164.7567°
revolutions per day: 0.11190238
mean anomaly at epoch: 357.7345°
orbit number at epoch: 327

The dashed part of the orbit path shows where the satellite is in the earth's shadow,  

DLR